owner,sensor,date,latitude,longitude,vertical_datum,sea_water_temperature,qcFlag 
COMPS,ioos:station:USF.COMPS:EGK:1,2013-05-12T05:18:00Z,27.6010,-82.7510,-1.0,0.07,2 
COMPS,ioos:station:USF.COMPS:EGK:1,2013-05-12T05:24:00Z,27.6010,-82.7510,-1.0,0.07,2 
COMPS,ioos:station:USF.COMPS:EGK:1,2013-05-12T08:54:00Z,27.6010,-82.7510,-1.0,0.04,2 
COMPS,ioos:station:USF.COMPS:EGK:1,2013-05-12T09:00:00Z,27.6010,-82.7510,-1.0,0.12,2 
COMPS,ioos:station:USF.COMPS:EGK:1,2013-05-12T09:06:00Z,27.6010,-82.7510,-1.0,0.19,2 
COMPS,ioos:station:USF.COMPS:EGK:1,2013-05-12T09:12:00Z,27.6010,-82.7510,-1.0,0.04,2 
COMPS,ioos:station:USF.COMPS:EGK:1,2013-05-12T09:18:00Z,27.6010,-82.7510,-1.0,0.09,2 
COMPS,ioos:station:USF.COMPS:EGK:1,2013-05-12T09:24:00Z,27.6010,-82.7510,-1.0,0.13,2 
COMPS,ioos:station:USF.COMPS:EGK:1,2013-05-12T09:30:00Z,27.6010,-82.7510,-1.0,0.18,2 
COMPS,ioos:station:USF.COMPS:EGK:1,2013-05-12T09:36:00Z,27.6010,-82.7510,-1.0,0.01,2 
COMPS,ioos:station:USF.COMPS:EGK:1,2013-05-12T12:42:00Z,27.6010,-82.7510,-1.0,0.02,2 
COMPS,ioos:station:USF.COMPS:EGK:1,2013-05-12T12:48:00Z,27.6010,-82.7510,-1.0,0.02,2 
COMPS,ioos:station:USF.COMPS:EGK:1,2013-05-12T13:06:00Z,27.6010,-82.7510,-1.0,0.07,2 
COMPS,ioos:station:USF.COMPS:EGK:1,2013-05-12T13:12:00Z,27.6010,-82.7510,-1.0,0.09,2 
COMPS,ioos:station:USF.COMPS:EGK:1,2013-05-12T13:18:00Z,27.6010,-82.7510,-1.0,0.19,2 
COMPS,ioos:station:USF.COMPS:EGK:1,2013-05-12T13:24:00Z,27.6010,-82.7510,-1.0,0.35,2 
COMPS,ioos:station:USF.COMPS:EGK:1,2013-05-12T13:30:00Z,27.6010,-82.7510,-1.0,0.12,2 
COMPS,ioos:station:USF.COMPS:EGK:1,2013-05-12T13:36:00Z,27.6010,-82.7510,-1.0,0.11,2 
COMPS,ioos:station:USF.COMPS:EGK:1,2013-05-12T13:42:00Z,27.6010,-82.7510,-1.0,0.09,2 
COMPS,ioos:station:USF.COMPS:EGK:1,2013-05-12T13:54:00Z,27.6010,-82.7510,-1.0,0.08,2 
COMPS,ioos:station:USF.COMPS:EGK:1,2013-05-12T14:00:00Z,27.6010,-82.7510,-1.0,0.06,2 
COMPS,ioos:station:USF.COMPS:EGK:1,2013-05-12T14:06:00Z,27.6010,-82.7510,-1.0,0.1,2 
COMPS,ioos:station:USF.COMPS:EGK:1,2013-05-12T14:12:00Z,27.6010,-82.7510,-1.0,0.16,2 
COMPS,ioos:station:USF.COMPS:EGK:1,2013-05-12T14:18:00Z,27.6010,-82.7510,-1.0,0.17,2 
COMPS,ioos:station:USF.COMPS:EGK:1,2013-05-12T14:24:00Z,27.6010,-82.7510,-1.0,0.45,2 
COMPS,ioos:station:USF.COMPS:EGK:1,2013-05-12T14:30:00Z,27.6010,-82.7510,-1.0,0.33,2 
COMPS,ioos:station:USF.COMPS:EGK:1,2013-05-12T14:36:00Z,27.6010,-82.7510,-1.0,0.21,2 
COMPS,ioos:station:USF.COMPS:EGK:1,2013-05-12T14:42:00Z,27.6010,-82.7510,-1.0,0.22,2 
COMPS,ioos:station:USF.COMPS:EGK:1,2013-05-12T14:48:00Z,27.6010,-82.7510,-1.0,0.23,2 
COMPS,ioos:station:USF.COMPS:EGK:1,2013-05-12T14:54:00Z,27.6010,-82.7510,-1.0,0.15,2 
COMPS,ioos:station:USF.COMPS:EGK:1,2013-05-12T15:00:00Z,27.6010,-82.7510,-1.0,0.15,2 
COMPS,ioos:station:USF.COMPS:EGK:1,2013-05-12T15:06:00Z,27.6010,-82.7510,-1.0,0.16,2 
COMPS,ioos:station:USF.COMPS:EGK:1,2013-05-12T15:12:00Z,27.6010,-82.7510,-1.0,0.14,2 
COMPS,ioos:station:USF.COMPS:EGK:1,2013-05-12T15:18:00Z,27.6010,-82.7510,-1.0,0.25,2 
COMPS,ioos:station:USF.COMPS:EGK:1,2013-05-12T15:24:00Z,27.6010,-82.7510,-1.0,0.17,2 
COMPS,ioos:station:USF.COMPS:EGK:1,2013-05-12T15:30:00Z,27.6010,-82.7510,-1.0,0.15,2 
COMPS,ioos:station:USF.COMPS:EGK:1,2013-05-12T15:36:00Z,27.6010,-82.7510,-1.0,0.1,2 
COMPS,ioos:station:USF.COMPS:EGK:1,2013-05-12T15:42:00Z,27.6010,-82.7510,-1.0,0.07,2 
COMPS,ioos:station:USF.COMPS:EGK:1,2013-05-12T15:48:00Z,27.6010,-82.7510,-1.0,0.08,2 
COMPS,ioos:station:USF.COMPS:EGK:1,2013-05-12T15:54:00Z,27.6010,-82.7510,-1.0,0.04,2 
COMPS,ioos:station:USF.COMPS:EGK:1,2013-05-12T16:48:00Z,27.6010,-82.7510,-1.0,0.06,2 
COMPS,ioos:station:USF.COMPS:EGK:1,2013-05-12T16:54:00Z,27.6010,-82.7510,-1.0,0.26,2 
COMPS,ioos:station:USF.COMPS:EGK:1,2013-05-12T17:00:00Z,27.6010,-82.7510,-1.0,0.16,2 
COMPS,ioos:station:USF.COMPS:EGK:1,2013-05-12T17:06:00Z,27.6010,-82.7510,-1.0,0.18,2 
COMPS,ioos:station:USF.COMPS:EGK:1,2013-05-12T17:12:00Z,27.6010,-82.7510,-1.0,0.15,2 
COMPS,ioos:station:USF.COMPS:EGK:1,2013-05-12T17:18:00Z,27.6010,-82.7510,-1.0,0.07,2 
COMPS,ioos:station:USF.COMPS:EGK:1,2013-05-12T17:24:00Z,27.6010,-82.7510,-1.0,0.04,2 
COMPS,ioos:station:USF.COMPS:EGK:1,2013-05-12T17:30:00Z,27.6010,-82.7510,-1.0,0.27,2 
COMPS,ioos:station:USF.COMPS:EGK:1,2013-05-12T17:36:00Z,27.6010,-82.7510,-1.0,0.21,2 
COMPS,ioos:station:USF.COMPS:EGK:1,2013-05-12T17:42:00Z,27.6010,-82.7510,-1.0,0.1,2 
COMPS,ioos:station:USF.COMPS:EGK:1,2013-05-12T17:48:00Z,27.6010,-82.7510,-1.0,0.09,2 
COMPS,ioos:station:USF.COMPS:EGK:1,2013-05-12T17:54:00Z,27.6010,-82.7510,-1.0,0.02,2 
COMPS,ioos:station:USF.COMPS:EGK:1,2013-05-12T23:48:00Z,27.6010,-82.7510,-1.0,0.1,2 
COMPS,ioos:station:USF.COMPS:EGK:1,2013-05-12T23:54:00Z,27.6010,-82.7510,-1.0,0.01,2 
COMPS,ioos:station:USF.COMPS:EGK:1,2013-05-13T02:54:00Z,27.6010,-82.7510,-1.0,0.07,2 
COMPS,ioos:station:USF.COMPS:EGK:1,2013-05-13T03:00:00Z,27.6010,-82.7510,-1.0,0.13,2 
COMPS,ioos:station:USF.COMPS:EGK:1,2013-05-13T03:06:00Z,27.6010,-82.7510,-1.0,0.15,2 
COMPS,ioos:station:USF.COMPS:EGK:1,2013-05-13T03:12:00Z,27.6010,-82.7510,-1.0,0.25,2 
COMPS,ioos:station:USF.COMPS:EGK:1,2013-05-13T03:18:00Z,27.6010,-82.7510,-1.0,0.31,2 
COMPS,ioos:station:USF.COMPS:EGK:1,2013-05-13T03:24:00Z,27.6010,-82.7510,-1.0,0.37,2 
COMPS,ioos:station:USF.COMPS:EGK:1,2013-05-13T03:30:00Z,27.6010,-82.7510,-1.0,0.4,2 
COMPS,ioos:station:USF.COMPS:EGK:1,2013-05-13T03:36:00Z,27.6010,-82.7510,-1.0,0.37,2 
COMPS,ioos:station:USF.COMPS:EGK:1,2013-05-13T03:42:00Z,27.6010,-82.7510,-1.0,0.62,2 
COMPS,ioos:station:USF.COMPS:EGK:1,2013-05-13T03:48:00Z,27.6010,-82.7510,-1.0,0.45,2 
COMPS,ioos:station:USF.COMPS:EGK:1,2013-05-13T03:54:00Z,27.6010,-82.7510,-1.0,0.1,2 
COMPS,ioos:station:USF.COMPS:EGK:1,2013-05-13T06:18:00Z,27.6010,-82.7510,-1.0,0.03,2 
COMPS,ioos:station:USF.COMPS:EGK:1,2013-05-13T08:54:00Z,27.6010,-82.7510,-1.0,0.05,2 
COMPS,ioos:station:USF.COMPS:EGK:1,2013-05-13T09:00:00Z,27.6010,-82.7510,-1.0,0.06,2 
COMPS,ioos:station:USF.COMPS:EGK:1,2013-05-13T09:06:00Z,27.6010,-82.7510,-1.0,0.16,2 
COMPS,ioos:station:USF.COMPS:EGK:1,2013-05-13T09:12:00Z,27.6010,-82.7510,-1.0,0.22,2 
COMPS,ioos:station:USF.COMPS:EGK:1,2013-05-13T09:18:00Z,27.6010,-82.7510,-1.0,0.24,2 
COMPS,ioos:station:USF.COMPS:EGK:1,2013-05-13T09:24:00Z,27.6010,-82.7510,-1.0,0.21,2 
COMPS,ioos:station:USF.COMPS:EGK:1,2013-05-13T09:30:00Z,27.6010,-82.7510,-1.0,0.38,2 
COMPS,ioos:station:USF.COMPS:EGK:1,2013-05-13T09:36:00Z,27.6010,-82.7510,-1.0,0.54,2 
COMPS,ioos:station:USF.COMPS:EGK:1,2013-05-13T09:42:00Z,27.6010,-82.7510,-1.0,0.52,2 
COMPS,ioos:station:USF.COMPS:EGK:1,2013-05-13T09:48:00Z,27.6010,-82.7510,-1.0,0.48,2 
COMPS,ioos:station:USF.COMPS:EGK:1,2013-05-13T09:54:00Z,27.6010,-82.7510,-1.0,0.43,2 
COMPS,ioos:station:USF.COMPS:EGK:1,2013-05-13T10:00:00Z,27.6010,-82.7510,-1.0,0.35,2 
COMPS,ioos:station:USF.COMPS:EGK:1,2013-05-13T10:06:00Z,27.6010,-82.7510,-1.0,0.45,2 
COMPS,ioos:station:USF.COMPS:EGK:1,2013-05-13T10:12:00Z,27.6010,-82.7510,-1.0,0.43,2 
COMPS,ioos:station:USF.COMPS:EGK:1,2013-05-13T10:18:00Z,27.6010,-82.7510,-1.0,0.34,2 
COMPS,ioos:station:USF.COMPS:EGK:1,2013-05-13T10:24:00Z,27.6010,-82.7510,-1.0,0.21,2 
COMPS,ioos:station:USF.COMPS:EGK:1,2013-05-13T16:42:00Z,27.6010,-82.7510,-1.0,0.07,2 
COMPS,ioos:station:USF.COMPS:EGK:1,2013-05-13T16:48:00Z,27.6010,-82.7510,-1.0,0.08,2 
COMPS,ioos:station:USF.COMPS:EGK:1,2013-05-13T17:00:00Z,27.6010,-82.7510,-1.0,0.06,2 
COMPS,ioos:station:USF.COMPS:EGK:1,2013-05-13T17:12:00Z,27.6010,-82.7510,-1.0,0.03,2 
COMPS,ioos:station:USF.COMPS:EGK:1,2013-05-13T17:18:00Z,27.6010,-82.7510,-1.0,0.18,2 
COMPS,ioos:station:USF.COMPS:EGK:1,2013-05-13T17:24:00Z,27.6010,-82.7510,-1.0,0.09,2 
COMPS,ioos:station:USF.COMPS:EGK:1,2013-05-13T18:36:00Z,27.6010,-82.7510,-1.0,0.09,2 
COMPS,ioos:station:USF.COMPS:EGK:1,2013-05-13T18:42:00Z,27.6010,-82.7510,-1.0,0.17,2 
COMPS,ioos:station:USF.COMPS:EGK:1,2013-05-13T18:48:00Z,27.6010,-82.7510,-1.0,0.2,2 
COMPS,ioos:station:USF.COMPS:EGK:1,2013-05-13T18:54:00Z,27.6010,-82.7510,-1.0,0.2,2 
COMPS,ioos:station:USF.COMPS:EGK:1,2013-05-13T19:00:00Z,27.6010,-82.7510,-1.0,0.13,2 
COMPS,ioos:station:USF.COMPS:EGK:1,2013-05-13T21:06:00Z,27.6010,-82.7510,-1.0,0.04,2 
COMPS,ioos:station:USF.COMPS:EGK:1,2013-05-13T23:18:00Z,27.6010,-82.7510,-1.0,0.13,2 
COMPS,ioos:station:USF.COMPS:EGK:1,2013-05-13T23:24:00Z,27.6010,-82.7510,-1.0,0.15,2 
COMPS,ioos:station:USF.COMPS:EGK:1,2013-05-13T23:30:00Z,27.6010,-82.7510,-1.0,0.11,2 
COMPS,ioos:station:USF.COMPS:EGK:1,2013-05-13T23:36:00Z,27.6010,-82.7510,-1.0,0.1,2 
COMPS,ioos:station:USF.COMPS:EGK:1,2013-05-13T23:42:00Z,27.6010,-82.7510,-1.0,0.26,2 
COMPS,ioos:station:USF.COMPS:EGK:1,2013-05-13T23:48:00Z,27.6010,-82.7510,-1.0,0.5,2 
COMPS,ioos:station:USF.COMPS:EGK:1,2013-05-13T23:54:00Z,27.6010,-82.7510,-1.0,0.4,2 
COMPS,ioos:station:USF.COMPS:EGK:1,2013-05-14T00:00:00Z,27.6010,-82.7510,-1.0,0.32,2 
COMPS,ioos:station:USF.COMPS:EGK:1,2013-05-14T00:06:00Z,27.6010,-82.7510,-1.0,0.57,2 
COMPS,ioos:station:USF.COMPS:EGK:1,2013-05-14T00:12:00Z,27.6010,-82.7510,-1.0,0.55,2 
COMPS,ioos:station:USF.COMPS:EGK:1,2013-05-14T00:18:00Z,27.6010,-82.7510,-1.0,0.42,2 
COMPS,ioos:station:USF.COMPS:EGK:1,2013-05-14T00:24:00Z,27.6010,-82.7510,-1.0,0.42,2 
COMPS,ioos:station:USF.COMPS:EGK:1,2013-05-14T00:30:00Z,27.6010,-82.7510,-1.0,0.2,2 
COMPS,ioos:station:USF.COMPS:EGK:1,2013-05-14T00:36:00Z,27.6010,-82.7510,-1.0,0.02,2 
COMPS,ioos:station:USF.COMPS:EGK:1,2013-05-14T01:00:00Z,27.6010,-82.7510,-1.0,0.06,2 
COMPS,ioos:station:USF.COMPS:EGK:1,2013-05-14T01:06:00Z,27.6010,-82.7510,-1.0,0.18,2 
COMPS,ioos:station:USF.COMPS:EGK:1,2013-05-14T02:54:00Z,27.6010,-82.7510,-1.0,0.09,2 
COMPS,ioos:station:USF.COMPS:EGK:1,2013-05-14T03:00:00Z,27.6010,-82.7510,-1.0,0.29,2 
COMPS,ioos:station:USF.COMPS:EGK:1,2013-05-14T03:06:00Z,27.6010,-82.7510,-1.0,0.16,2 
COMPS,ioos:station:USF.COMPS:EGK:1,2013-05-14T03:12:00Z,27.6010,-82.7510,-1.0,0.01,2 
COMPS,ioos:station:USF.COMPS:EGK:1,2013-05-14T03:18:00Z,27.6010,-82.7510,-1.0,0.17,2 
COMPS,ioos:station:USF.COMPS:EGK:1,2013-05-14T03:24:00Z,27.6010,-82.7510,-1.0,0.09,2 
COMPS,ioos:station:USF.COMPS:EGK:1,2013-05-14T04:12:00Z,27.6010,-82.7510,-1.0,0.01,2 
COMPS,ioos:station:USF.COMPS:EGK:1,2013-05-14T04:24:00Z,27.6010,-82.7510,-1.0,0.26,2 
COMPS,ioos:station:USF.COMPS:EGK:1,2013-05-14T04:30:00Z,27.6010,-82.7510,-1.0,0.41,2 
COMPS,ioos:station:USF.COMPS:EGK:1,2013-05-14T04:36:00Z,27.6010,-82.7510,-1.0,0.41,2 
COMPS,ioos:station:USF.COMPS:EGK:1,2013-05-14T04:42:00Z,27.6010,-82.7510,-1.0,0.52,2 
COMPS,ioos:station:USF.COMPS:EGK:1,2013-05-14T04:48:00Z,27.6010,-82.7510,-1.0,0.67,2 
COMPS,ioos:station:USF.COMPS:EGK:1,2013-05-14T04:54:00Z,27.6010,-82.7510,-1.0,0.43,2 
COMPS,ioos:station:USF.COMPS:EGK:1,2013-05-14T05:00:00Z,27.6010,-82.7510,-1.0,0.47,2 
COMPS,ioos:station:USF.COMPS:EGK:1,2013-05-14T05:06:00Z,27.6010,-82.7510,-1.0,0.57,2 
COMPS,ioos:station:USF.COMPS:EGK:1,2013-05-14T05:12:00Z,27.6010,-82.7510,-1.0,0.6,2 
COMPS,ioos:station:USF.COMPS:EGK:1,2013-05-14T05:18:00Z,27.6010,-82.7510,-1.0,0.59,2 
COMPS,ioos:station:USF.COMPS:EGK:1,2013-05-14T05:24:00Z,27.6010,-82.7510,-1.0,0.64,2 
COMPS,ioos:station:USF.COMPS:EGK:1,2013-05-14T05:30:00Z,27.6010,-82.7510,-1.0,0.53,2 
COMPS,ioos:station:USF.COMPS:EGK:1,2013-05-14T05:36:00Z,27.6010,-82.7510,-1.0,0.65,2 
COMPS,ioos:station:USF.COMPS:EGK:1,2013-05-14T05:42:00Z,27.6010,-82.7510,-1.0,0.72,2 
COMPS,ioos:station:USF.COMPS:EGK:1,2013-05-14T05:48:00Z,27.6010,-82.7510,-1.0,0.63,2 
COMPS,ioos:station:USF.COMPS:EGK:1,2013-05-14T05:54:00Z,27.6010,-82.7510,-1.0,0.39,2 
COMPS,ioos:station:USF.COMPS:EGK:1,2013-05-14T12:54:00Z,27.6010,-82.7510,-1.0,0.04,2 
COMPS,ioos:station:USF.COMPS:EGK:1,2013-05-14T15:24:00Z,27.6010,-82.7510,-1.0,0.07,2 
COMPS,ioos:station:USF.COMPS:EGK:1,2013-05-14T15:30:00Z,27.6010,-82.7510,-1.0,0.05,2 
COMPS,ioos:station:USF.COMPS:EGK:1,2013-05-14T15:48:00Z,27.6010,-82.7510,-1.0,0.01,2 
COMPS,ioos:station:USF.COMPS:EGK:1,2013-05-14T15:54:00Z,27.6010,-82.7510,-1.0,0.07,2 
COMPS,ioos:station:USF.COMPS:EGK:1,2013-05-14T16:00:00Z,27.6010,-82.7510,-1.0,0.24,2 
COMPS,ioos:station:USF.COMPS:EGK:1,2013-05-14T16:06:00Z,27.6010,-82.7510,-1.0,0.17,2 
COMPS,ioos:station:USF.COMPS:EGK:1,2013-05-14T16:12:00Z,27.6010,-82.7510,-1.0,0.26,2 
COMPS,ioos:station:USF.COMPS:EGK:1,2013-05-14T16:18:00Z,27.6010,-82.7510,-1.0,0.34,2 
COMPS,ioos:station:USF.COMPS:EGK:1,2013-05-14T16:24:00Z,27.6010,-82.7510,-1.0,0.03,2 
COMPS,ioos:station:USF.COMPS:EGK:1,2013-05-14T16:30:00Z,27.6010,-82.7510,-1.0,0.03,2 
COMPS,ioos:station:USF.COMPS:EGK:1,2013-05-14T16:36:00Z,27.6010,-82.7510,-1.0,0.23,2 
COMPS,ioos:station:USF.COMPS:EGK:1,2013-05-14T16:42:00Z,27.6010,-82.7510,-1.0,0.13,2 
COMPS,ioos:station:USF.COMPS:EGK:1,2013-05-14T16:48:00Z,27.6010,-82.7510,-1.0,0.39,2 
COMPS,ioos:station:USF.COMPS:EGK:1,2013-05-14T16:54:00Z,27.6010,-82.7510,-1.0,0.39,2 
COMPS,ioos:station:USF.COMPS:EGK:1,2013-05-14T17:00:00Z,27.6010,-82.7510,-1.0,0.53,2 
COMPS,ioos:station:USF.COMPS:EGK:1,2013-05-14T17:06:00Z,27.6010,-82.7510,-1.0,0.46,2 
COMPS,ioos:station:USF.COMPS:EGK:1,2013-05-14T17:12:00Z,27.6010,-82.7510,-1.0,0.51,2 
COMPS,ioos:station:USF.COMPS:EGK:1,2013-05-14T17:18:00Z,27.6010,-82.7510,-1.0,0.42,2 
COMPS,ioos:station:USF.COMPS:EGK:1,2013-05-14T17:24:00Z,27.6010,-82.7510,-1.0,0.18,2 
COMPS,ioos:station:USF.COMPS:EGK:1,2013-05-14T17:30:00Z,27.6010,-82.7510,-1.0,0.15,2 
COMPS,ioos:station:USF.COMPS:EGK:1,2013-05-14T17:36:00Z,27.6010,-82.7510,-1.0,0.22,2 
COMPS,ioos:station:USF.COMPS:EGK:1,2013-05-14T17:42:00Z,27.6010,-82.7510,-1.0,0.24,2 
COMPS,ioos:station:USF.COMPS:EGK:1,2013-05-14T17:48:00Z,27.6010,-82.7510,-1.0,0.31,2 
COMPS,ioos:station:USF.COMPS:EGK:1,2013-05-14T17:54:00Z,27.6010,-82.7510,-1.0,0.49,2 
COMPS,ioos:station:USF.COMPS:EGK:1,2013-05-14T18:00:00Z,27.6010,-82.7510,-1.0,0.66,2 
COMPS,ioos:station:USF.COMPS:EGK:1,2013-05-14T18:06:00Z,27.6010,-82.7510,-1.0,0.53,2 
COMPS,ioos:station:USF.COMPS:EGK:1,2013-05-14T18:12:00Z,27.6010,-82.7510,-1.0,0.21,2 
COMPS,ioos:station:USF.COMPS:EGK:1,2013-05-14T18:18:00Z,27.6010,-82.7510,-1.0,0.06,2 
COMPS,ioos:station:USF.COMPS:EGK:1,2013-05-14T18:24:00Z,27.6010,-82.7510,-1.0,0.34,2 
COMPS,ioos:station:USF.COMPS:EGK:1,2013-05-14T19:06:00Z,27.6010,-82.7510,-1.0,0.12,2 
COMPS,ioos:station:USF.COMPS:EGK:1,2013-05-14T19:12:00Z,27.6010,-82.7510,-1.0,0.24,2 
COMPS,ioos:station:USF.COMPS:EGK:1,2013-05-14T19:18:00Z,27.6010,-82.7510,-1.0,0.25,2 
COMPS,ioos:station:USF.COMPS:EGK:1,2013-05-14T19:24:00Z,27.6010,-82.7510,-1.0,0.25,2 
COMPS,ioos:station:USF.COMPS:EGK:1,2013-05-14T19:30:00Z,27.6010,-82.7510,-1.0,0.35,2 
COMPS,ioos:station:USF.COMPS:EGK:1,2013-05-14T19:36:00Z,27.6010,-82.7510,-1.0,0.18,2 
COMPS,ioos:station:USF.COMPS:EGK:1,2013-05-14T19:42:00Z,27.6010,-82.7510,-1.0,0.19,2 
COMPS,ioos:station:USF.COMPS:EGK:1,2013-05-14T19:48:00Z,27.6010,-82.7510,-1.0,0.24,2 
COMPS,ioos:station:USF.COMPS:EGK:1,2013-05-14T19:54:00Z,27.6010,-82.7510,-1.0,0.14,2 
COMPS,ioos:station:USF.COMPS:EGK:1,2013-05-14T20:30:00Z,27.6010,-82.7510,-1.0,0.02,2 
COMPS,ioos:station:USF.COMPS:EGK:1,2013-05-14T20:36:00Z,27.6010,-82.7510,-1.0,0.08,2 
COMPS,ioos:station:USF.COMPS:EGK:1,2013-05-14T20:42:00Z,27.6010,-82.7510,-1.0,0.16,2 
COMPS,ioos:station:USF.COMPS:EGK:1,2013-05-14T20:48:00Z,27.6010,-82.7510,-1.0,0.44,2 
COMPS,ioos:station:USF.COMPS:EGK:1,2013-05-14T20:54:00Z,27.6010,-82.7510,-1.0,0.31,2 
COMPS,ioos:station:USF.COMPS:EGK:1,2013-05-14T21:00:00Z,27.6010,-82.7510,-1.0,0.4,2 
COMPS,ioos:station:USF.COMPS:EGK:1,2013-05-14T21:06:00Z,27.6010,-82.7510,-1.0,0.6,2 
COMPS,ioos:station:USF.COMPS:EGK:1,2013-05-14T21:12:00Z,27.6010,-82.7510,-1.0,0.43,2 
COMPS,ioos:station:USF.COMPS:EGK:1,2013-05-14T21:18:00Z,27.6010,-82.7510,-1.0,0.56,2 
COMPS,ioos:station:USF.COMPS:EGK:1,2013-05-14T21:24:00Z,27.6010,-82.7510,-1.0,0.65,2 
COMPS,ioos:station:USF.COMPS:EGK:1,2013-05-14T21:30:00Z,27.6010,-82.7510,-1.0,0.81,2 
COMPS,ioos:station:USF.COMPS:EGK:1,2013-05-14T21:36:00Z,27.6010,-82.7510,-1.0,0.59,2 
COMPS,ioos:station:USF.COMPS:EGK:1,2013-05-14T21:42:00Z,27.6010,-82.7510,-1.0,0.7,2 
COMPS,ioos:station:USF.COMPS:EGK:1,2013-05-14T21:48:00Z,27.6010,-82.7510,-1.0,1.0,2 
COMPS,ioos:station:USF.COMPS:EGK:1,2013-05-14T21:54:00Z,27.6010,-82.7510,-1.0,0.58,2 
COMPS,ioos:station:USF.COMPS:EGK:1,2013-05-14T22:00:00Z,27.6010,-82.7510,-1.0,0.62,2 
COMPS,ioos:station:USF.COMPS:EGK:1,2013-05-14T22:06:00Z,27.6010,-82.7510,-1.0,0.31,2 
COMPS,ioos:station:USF.COMPS:EGK:1,2013-05-14T22:12:00Z,27.6010,-82.7510,-1.0,0.43,2 
COMPS,ioos:station:USF.COMPS:EGK:1,2013-05-14T22:18:00Z,27.6010,-82.7510,-1.0,0.27,2 
COMPS,ioos:station:USF.COMPS:EGK:1,2013-05-14T22:24:00Z,27.6010,-82.7510,-1.0,0.3,2 
COMPS,ioos:station:USF.COMPS:EGK:1,2013-05-14T22:30:00Z,27.6010,-82.7510,-1.0,0.51,2 
COMPS,ioos:station:USF.COMPS:EGK:1,2013-05-14T22:36:00Z,27.6010,-82.7510,-1.0,0.06,2 
COMPS,ioos:station:USF.COMPS:EGK:1,2013-05-14T22:42:00Z,27.6010,-82.7510,-1.0,0.13,2 
COMPS,ioos:station:USF.COMPS:EGK:1,2013-05-14T22:48:00Z,27.6010,-82.7510,-1.0,0.19,2 
COMPS,ioos:station:USF.COMPS:EGK:1,2013-05-14T22:54:00Z,27.6010,-82.7510,-1.0,0.23,2 
COMPS,ioos:station:USF.COMPS:EGK:1,2013-05-14T23:00:00Z,27.6010,-82.7510,-1.0,0.21,2 
COMPS,ioos:station:USF.COMPS:EGK:1,2013-05-14T23:06:00Z,27.6010,-82.7510,-1.0,0.23,2 
COMPS,ioos:station:USF.COMPS:EGK:1,2013-05-14T23:12:00Z,27.6010,-82.7510,-1.0,0.09,2 
COMPS,ioos:station:USF.COMPS:EGK:1,2013-05-14T23:18:00Z,27.6010,-82.7510,-1.0,0.24,2 
COMPS,ioos:station:USF.COMPS:EGK:1,2013-05-14T23:24:00Z,27.6010,-82.7510,-1.0,0.21,2 
COMPS,ioos:station:USF.COMPS:EGK:1,2013-05-14T23:30:00Z,27.6010,-82.7510,-1.0,0.11,2 
COMPS,ioos:station:USF.COMPS:EGK:1,2013-05-14T23:36:00Z,27.6010,-82.7510,-1.0,0.26,2 
COMPS,ioos:station:USF.COMPS:EGK:1,2013-05-14T23:42:00Z,27.6010,-82.7510,-1.0,0.17,2 
COMPS,ioos:station:USF.COMPS:EGK:1,2013-05-14T23:48:00Z,27.6010,-82.7510,-1.0,0.29,2 
COMPS,ioos:station:USF.COMPS:EGK:1,2013-05-14T23:54:00Z,27.6010,-82.7510,-1.0,0.14,2 
COMPS,ioos:station:USF.COMPS:EGK:1,2013-05-15T00:00:00Z,27.6010,-82.7510,-1.0,0.02,2 
COMPS,ioos:station:USF.COMPS:EGK:1,2013-05-15T00:06:00Z,27.6010,-82.7510,-1.0,0.5,2 
COMPS,ioos:station:USF.COMPS:EGK:1,2013-05-15T00:12:00Z,27.6010,-82.7510,-1.0,0.11,2 
COMPS,ioos:station:USF.COMPS:EGK:1,2013-05-15T00:24:00Z,27.6010,-82.7510,-1.0,0.18,2 
COMPS,ioos:station:USF.COMPS:EGK:1,2013-05-15T00:54:00Z,27.6010,-82.7510,-1.0,0.09,2 
COMPS,ioos:station:USF.COMPS:EGK:1,2013-05-15T01:00:00Z,27.6010,-82.7510,-1.0,0.02,2 
COMPS,ioos:station:USF.COMPS:EGK:1,2013-05-15T01:06:00Z,27.6010,-82.7510,-1.0,0.05,2 
COMPS,ioos:station:USF.COMPS:EGK:1,2013-05-15T01:12:00Z,27.6010,-82.7510,-1.0,0.23,2 
COMPS,ioos:station:USF.COMPS:EGK:1,2013-05-15T01:18:00Z,27.6010,-82.7510,-1.0,0.16,2 
COMPS,ioos:station:USF.COMPS:EGK:1,2013-05-15T01:36:00Z,27.6010,-82.7510,-1.0,0.06,2 
COMPS,ioos:station:USF.COMPS:EGK:1,2013-05-15T02:06:00Z,27.6010,-82.7510,-1.0,0.12,2 
COMPS,ioos:station:USF.COMPS:EGK:1,2013-05-15T02:12:00Z,27.6010,-82.7510,-1.0,0.12,2 
COMPS,ioos:station:USF.COMPS:EGK:1,2013-05-15T02:18:00Z,27.6010,-82.7510,-1.0,0.17,2 
COMPS,ioos:station:USF.COMPS:EGK:1,2013-05-15T04:24:00Z,27.6010,-82.7510,-1.0,0.02,2 
COMPS,ioos:station:USF.COMPS:EGK:1,2013-05-15T05:48:00Z,27.6010,-82.7510,-1.0,0.27,2 
COMPS,ioos:station:USF.COMPS:EGK:1,2013-05-15T05:54:00Z,27.6010,-82.7510,-1.0,0.48,2 
COMPS,ioos:station:USF.COMPS:EGK:1,2013-05-15T06:00:00Z,27.6010,-82.7510,-1.0,0.74,2 
COMPS,ioos:station:USF.COMPS:EGK:1,2013-05-15T06:06:00Z,27.6010,-82.7510,-1.0,0.94,2 
COMPS,ioos:station:USF.COMPS:EGK:1,2013-05-15T06:12:00Z,27.6010,-82.7510,-1.0,0.94,2 
COMPS,ioos:station:USF.COMPS:EGK:1,2013-05-15T06:18:00Z,27.6010,-82.7510,-1.0,0.65,2 
COMPS,ioos:station:USF.COMPS:EGK:1,2013-05-15T06:24:00Z,27.6010,-82.7510,-1.0,0.5,2 
COMPS,ioos:station:USF.COMPS:EGK:1,2013-05-15T06:30:00Z,27.6010,-82.7510,-1.0,0.13,2 
COMPS,ioos:station:USF.COMPS:EGK:1,2013-05-15T06:54:00Z,27.6010,-82.7510,-1.0,0.18,2 
COMPS,ioos:station:USF.COMPS:EGK:1,2013-05-15T07:00:00Z,27.6010,-82.7510,-1.0,0.15,2 
COMPS,ioos:station:USF.COMPS:EGK:1,2013-05-15T07:06:00Z,27.6010,-82.7510,-1.0,0.07,2 
COMPS,ioos:station:USF.COMPS:EGK:1,2013-05-15T07:12:00Z,27.6010,-82.7510,-1.0,0.25,2 
COMPS,ioos:station:USF.COMPS:EGK:1,2013-05-15T07:18:00Z,27.6010,-82.7510,-1.0,0.31,2 
COMPS,ioos:station:USF.COMPS:EGK:1,2013-05-15T07:24:00Z,27.6010,-82.7510,-1.0,0.4,2 
COMPS,ioos:station:USF.COMPS:EGK:1,2013-05-15T07:30:00Z,27.6010,-82.7510,-1.0,0.47,2 
COMPS,ioos:station:USF.COMPS:EGK:1,2013-05-15T07:36:00Z,27.6010,-82.7510,-1.0,0.56,2 
COMPS,ioos:station:USF.COMPS:EGK:1,2013-05-15T07:42:00Z,27.6010,-82.7510,-1.0,0.52,2 
COMPS,ioos:station:USF.COMPS:EGK:1,2013-05-15T07:48:00Z,27.6010,-82.7510,-1.0,0.79,2 
COMPS,ioos:station:USF.COMPS:EGK:1,2013-05-15T07:54:00Z,27.6010,-82.7510,-1.0,0.63,2 
COMPS,ioos:station:USF.COMPS:EGK:1,2013-05-15T08:00:00Z,27.6010,-82.7510,-1.0,0.37,2 
COMPS,ioos:station:USF.COMPS:EGK:1,2013-05-15T13:54:00Z,27.6010,-82.7510,-1.0,0.13,2 
COMPS,ioos:station:USF.COMPS:EGK:1,2013-05-15T14:00:00Z,27.6010,-82.7510,-1.0,0.24,2 
COMPS,ioos:station:USF.COMPS:EGK:1,2013-05-15T14:06:00Z,27.6010,-82.7510,-1.0,0.29,2 
COMPS,ioos:station:USF.COMPS:EGK:1,2013-05-15T14:12:00Z,27.6010,-82.7510,-1.0,0.41,2 
COMPS,ioos:station:USF.COMPS:EGK:1,2013-05-15T14:18:00Z,27.6010,-82.7510,-1.0,0.48,2 
COMPS,ioos:station:USF.COMPS:EGK:1,2013-05-15T14:24:00Z,27.6010,-82.7510,-1.0,0.55,2 
COMPS,ioos:station:USF.COMPS:EGK:1,2013-05-15T14:30:00Z,27.6010,-82.7510,-1.0,0.46,2 
COMPS,ioos:station:USF.COMPS:EGK:1,2013-05-15T14:36:00Z,27.6010,-82.7510,-1.0,0.6,2 
COMPS,ioos:station:USF.COMPS:EGK:1,2013-05-15T14:42:00Z,27.6010,-82.7510,-1.0,0.83,2 
COMPS,ioos:station:USF.COMPS:EGK:1,2013-05-15T14:48:00Z,27.6010,-82.7510,-1.0,1.14,2 
COMPS,ioos:station:USF.COMPS:EGK:1,2013-05-15T14:54:00Z,27.6010,-82.7510,-1.0,1.36,2 
COMPS,ioos:station:USF.COMPS:EGK:1,2013-05-15T15:00:00Z,27.6010,-82.7510,-1.0,1.19,2 
COMPS,ioos:station:USF.COMPS:EGK:1,2013-05-15T15:06:00Z,27.6010,-82.7510,-1.0,1.38,2 
COMPS,ioos:station:USF.COMPS:EGK:1,2013-05-15T15:12:00Z,27.6010,-82.7510,-1.0,1.45,2 
COMPS,ioos:station:USF.COMPS:EGK:1,2013-05-15T15:18:00Z,27.6010,-82.7510,-1.0,1.56,2 
COMPS,ioos:station:USF.COMPS:EGK:1,2013-05-15T15:24:00Z,27.6010,-82.7510,-1.0,1.71,2 
COMPS,ioos:station:USF.COMPS:EGK:1,2013-05-15T15:30:00Z,27.6010,-82.7510,-1.0,1.75,2 
COMPS,ioos:station:USF.COMPS:EGK:1,2013-05-15T15:36:00Z,27.6010,-82.7510,-1.0,0.68,2 
COMPS,ioos:station:USF.COMPS:EGK:1,2013-05-15T15:42:00Z,27.6010,-82.7510,-1.0,0.63,2 
COMPS,ioos:station:USF.COMPS:EGK:1,2013-05-15T15:48:00Z,27.6010,-82.7510,-1.0,0.48,2 
COMPS,ioos:station:USF.COMPS:EGK:1,2013-05-15T15:54:00Z,27.6010,-82.7510,-1.0,0.54,2 
COMPS,ioos:station:USF.COMPS:EGK:1,2013-05-15T16:00:00Z,27.6010,-82.7510,-1.0,0.61,2 
COMPS,ioos:station:USF.COMPS:EGK:1,2013-05-15T16:12:00Z,27.6010,-82.7510,-1.0,0.4,2 
COMPS,ioos:station:USF.COMPS:EGK:1,2013-05-15T16:18:00Z,27.6010,-82.7510,-1.0,0.17,2 
COMPS,ioos:station:USF.COMPS:EGK:1,2013-05-15T17:00:00Z,27.6010,-82.7510,-1.0,0.35,2 
COMPS,ioos:station:USF.COMPS:EGK:1,2013-05-15T17:06:00Z,27.6010,-82.7510,-1.0,0.41,2 
COMPS,ioos:station:USF.COMPS:EGK:1,2013-05-15T17:12:00Z,27.6010,-82.7510,-1.0,0.17,2 
COMPS,ioos:station:USF.COMPS:EGK:1,2013-05-15T17:18:00Z,27.6010,-82.7510,-1.0,0.04,2 
COMPS,ioos:station:USF.COMPS:EGK:1,2013-05-15T17:36:00Z,27.6010,-82.7510,-1.0,0.08,2 
COMPS,ioos:station:USF.COMPS:EGK:1,2013-05-15T17:42:00Z,27.6010,-82.7510,-1.0,0.07,2 
COMPS,ioos:station:USF.COMPS:EGK:1,2013-05-15T17:48:00Z,27.6010,-82.7510,-1.0,0.14,2 
COMPS,ioos:station:USF.COMPS:EGK:1,2013-05-15T17:54:00Z,27.6010,-82.7510,-1.0,0.22,2 
COMPS,ioos:station:USF.COMPS:EGK:1,2013-05-15T18:00:00Z,27.6010,-82.7510,-1.0,0.32,2 
COMPS,ioos:station:USF.COMPS:EGK:1,2013-05-15T18:06:00Z,27.6010,-82.7510,-1.0,0.42,2 
COMPS,ioos:station:USF.COMPS:EGK:1,2013-05-15T18:12:00Z,27.6010,-82.7510,-1.0,0.18,2 
COMPS,ioos:station:USF.COMPS:EGK:1,2013-05-15T18:18:00Z,27.6010,-82.7510,-1.0,0.17,2 
COMPS,ioos:station:USF.COMPS:EGK:1,2013-05-15T18:30:00Z,27.6010,-82.7510,-1.0,0.02,2 